Flag for Belgium Weather past 2 weeks in Kortrijk, Belgium

Now
54 °F

Clear.


Feels Like: 50 °F
Forecast: 45 / 70 °F
Wind: 13 mph from East

Location: Lille Airport


UV Index: 3 (Moderate)

Visibility: 10 mi


Pressure: 29.71 "Hg

Humidity: 72%

Dew point: 45 °F

Location of KortrijkLocation

Historic Weather in Kortrijk

°F

Kortrijk temperature yesterday

Maximum temperature yesterday: 59 °F (at 6:00 PM)
Minimum temperature yesterday: 43 °F (at 6:30 AM)
Average temperature yesterday: 51 °F

Past Weeks' High & Low Weather Summary

 TemperatureHumidityPressure
High72 °F (Apr 7, 4:00 PM)100% (Apr 5, 7:00 AM)30.42 "Hg (Apr 5, 7:00 AM)
Low37 °F (Apr 15, 4:00 AM)28% (Apr 17, 6:00 PM)29.74 "Hg (Apr 7, 5:30 PM)
Average52 °F67%30.12 "Hg
* Reported Apr 5 4:00 AM — Apr 20 4:30 AM, Kortrijk, Weather by CustomWeather, © 2014

Note: Actual official high and low records may vary slightly from our data, if they occured in-between our weather recording intervals... More about our weather records

Advertising

Historic Weather Conditions — Data for Previous 24 hours

 ConditionsComfort  
Time TempWeatherWind HumidityBarometerVisibility
4:30 AM
Apr 20
54 °FClear.13 mph72%29.74 "HgN/A
4:00 AM54 °FClear.13 mph67%29.74 "HgN/A
3:30 AM55 °FClear.13 mph63%29.77 "HgN/A
3:00 AM54 °FClear.10 mph67%29.77 "HgN/A
2:30 AM54 °FClear.9 mph67%29.80 "HgN/A
2:00 AM54 °FClear.12 mph67%29.80 "Hg10 mi
1:30 AM54 °FClear.10 mph63%29.80 "Hg10 mi
1:00 AM54 °FClear.13 mph63%29.83 "Hg10 mi
12:30 AM54 °FClear.15 mph63%29.83 "Hg10 mi
12:00 AM52 °FClear.14 mph67%29.83 "Hg10 mi
11:30 PM
Apr 19
52 °FClear.13 mph72%29.86 "Hg10 mi
11:00 PM50 °FClear.14 mph76%29.86 "Hg10 mi
10:30 PM50 °FClear.10 mph76%29.89 "Hg10 mi
10:00 PM50 °FClear.10 mph71%29.89 "Hg10 mi
9:30 PM52 °FSunny.12 mph67%29.89 "Hg10 mi
9:00 PM52 °FSunny.13 mph67%29.89 "Hg10 mi
8:30 PM54 °FSunny.14 mph63%29.89 "Hg10 mi
8:00 PM57 °FPassing clouds.14 mph55%29.89 "HgN/A
7:30 PM59 °FSunny.12 mph42%29.89 "Hg10 mi
7:00 PM59 °FSunny.14 mph42%29.92 "Hg10 mi
6:30 PM57 °FPassing clouds.14 mph44%29.92 "HgN/A
6:00 PM59 °FPassing clouds.14 mph42%29.92 "HgN/A
5:30 PM57 °FPassing clouds.13 mph41%29.92 "HgN/A
5:00 PM57 °FPassing clouds.14 mph41%29.95 "HgN/A
4:30 PM57 °FPassing clouds.14 mph41%29.95 "HgN/A
4:00 PM57 °FPassing clouds.13 mph41%29.95 "HgN/A
3:30 PM57 °FPassing clouds.15 mph41%29.98 "HgN/A
3:00 PM55 °FSunny.13 mph41%29.98 "Hg10 mi
2:30 PM55 °FScattered clouds.13 mph44%29.98 "HgN/A
2:00 PM55 °FScattered clouds.10 mph47%30.01 "HgN/A
1:30 PM55 °FScattered clouds.13 mph44%30.01 "HgN/A
1:00 PM55 °FScattered clouds.10 mph47%30.01 "HgN/A
12:30 PM52 °FScattered clouds.13 mph50%30.04 "HgN/A
12:00 PM52 °FScattered clouds.12 mph54%30.04 "HgN/A
11:30 AM50 °FPartly sunny.13 mph62%30.04 "HgN/A
11:00 AM50 °FScattered clouds.9 mph62%30.04 "HgN/A
10:30 AM48 °FScattered clouds.9 mph66%30.04 "HgN/A
10:00 AM46 °FBroken clouds.12 mph71%30.04 "HgN/A
9:30 AM46 °FBroken clouds.10 mph71%30.04 "HgN/A
9:00 AM46 °FScattered clouds.8 mph76%30.04 "HgN/A
8:30 AM45 °FBroken clouds.8 mph76%30.04 "HgN/A
7:30 AM43 °FPassing clouds.7 mph81%30.01 "HgN/A
7:00 AM43 °FClear.9 mph76%30.01 "Hg10 mi
6:30 AM43 °FClear.7 mph76%30.01 "Hg10 mi
6:00 AM45 °FClear.9 mph71%30.01 "Hg10 mi
Weather by CustomWeather, © 2014

See weather overview